Location: Recife
(8.0585°S, 34.8848°W)
Time: 12:58:22
(UTC-03:00)

Vanguard 1 Rocket - Pass Details

Date: 14 April 2026
Orbit: 655 x 4212 km, 34.3° (Epoch: 12 May)

Event Time Altitude Azimuth Distance (km) Brightness Sun altitude
Rises 17:39:24 0° 237° (WSW) 5,664 12.3 -6.1°
Reaches altitude 10° 17:42:24 10° 238° (WSW) 5,018 12.0 -6.9°
Maximum altitude 17:58:52 80° 322° (NW) 3,599 10.4 -10.9°
Drops below altitude 10° 18:25:10 10° 48° (NE) 7,386 11.6 -17.4°
Sets 18:30:50 0° 49° (NE) 8,307 11.9 -18.8°
